Total_Precipitation_Accumulation
1.06 1.07 1.15 1.23 1.09 1.22 1.49 1.69 1.64 1.81 1.81 1.64 1.35 1.19 1.03 0.98 0.96 1.02 1.21 1.15 1.16 1.22 1.49 1.78 1.81 1.70 1.59 1.33 1.07 1.00 1.07 1.05 0.93 0.68 0.51 0.46 0.53 0.62 0.60 0.50 0.43 0.37 0.30
1.33 1.41 1.44 1.44 1.26 1.26 1.47 1.70 1.64 1.92 1.86 1.84 1.49 1.35 1.17 1.11 1.04 0.99 1.06 1.19 1.08 1.05 1.17 1.57 1.86 1.86 1.82 1.70 1.35 1.08 1.07 1.14 1.05 0.77 0.57 0.49 0.55 0.64 0.66 0.63 0.54 0.42 0.31
1.58 1.60 1.56 1.51 1.50 1.48 1.64 1.71 1.75 1.89 1.72 1.60 1.49 1.43 1.33 1.22 1.08 1.06 1.13 1.23 1.13 1.04 1.12 1.39 1.71 1.80 1.79 1.83 1.75 1.48 1.28 1.27 1.19 0.94 0.70 0.59 0.60 0.61 0.64 0.66 0.61 0.46 0.32
1.74 1.86 1.67 1.58 1.82 1.84 1.93 2.08 2.02 2.07 2.08 1.93 1.64 1.37 1.26 1.25 1.07 1.08 1.15 1.28 1.33 1.10 1.19 1.38 1.60 1.66 1.80 1.99 2.17 2.06 1.73 1.50 1.38 1.27 1.05 0.84 0.78 0.72 0.65 0.62 0.58 0.45 0.30
1.93 2.20 1.97 1.97 2.09 2.09 2.07 1.85 2.23 2.46 2.36 2.19 1.77 1.45 1.23 1.11 1.06 1.06 1.09 1.06 1.17 1.17 1.11 1.17 1.32 1.39 1.64 2.01 2.25 2.34 2.27 2.02 1.81 1.85 1.80 1.55 1.36 1.08 0.83 0.67 0.56 0.43 0.29
2.19 2.42 2.19 2.14 2.21 2.25 2.16 2.22 2.49 2.48 2.23 2.19 1.74 1.35 1.23 1.03 1.02 0.95 0.90 0.94 0.97 0.93 0.97 1.05 1.22 0.96 1.15 1.43 1.67 1.99 2.36 2.55 2.42 2.53 2.68 2.52 2.16 1.60 1.08 0.80 0.59 0.46 0.35
2.11 2.36 2.19 2.34 2.30 2.16 2.12 2.24 2.45 2.42 2.17 2.38 2.14 1.58 1.17 0.91 0.88 0.80 0.81 0.86 0.85 0.92 0.98 1.04 1.17 1.19 1.18 1.13 1.13 1.32 1.87 2.42 2.59 2.67 3.05 3.31 2.95 2.14 1.41 1.01 0.70 0.53 0.44
1.99 2.10 2.27 2.14 2.13 2.11 2.11 2.26 2.40 2.20 1.92 2.37 2.42 2.23 1.60 1.17 0.86 0.71 0.89 0.98 0.95 1.00 0.97 1.04 1.21 1.39 1.35 1.41 1.14 0.89 1.26 1.84 2.23 2.40 2.66 3.02 2.90 2.28 1.62 1.22 0.82 0.58 0.50
1.87 1.98 2.09 2.09 2.01 1.99 1.98 2.15 2.21 2.16 2.02 2.18 2.39 2.53 2.12 1.54 1.18 0.82 0.79 0.87 1.02 1.13 1.05 1.05 1.11 1.23 1.21 1.42 1.51 1.19 1.00 1.19 1.55 2.06 2.34 2.43 2.30 1.91 1.52 1.33 1.11 0.81 0.61
1.80 1.86 1.88 1.87 1.87 1.82 1.81 1.77 1.88 2.18 2.23 2.04 2.20 2.26 2.18 1.99 1.74 1.18 0.92 0.91 0.99 1.03 1.10 1.02 0.95 1.10 1.22 1.36 1.47 1.33 1.16 1.04 1.13 1.63 1.90 1.96 1.88 1.59 1.35 1.33 1.52 1.35 0.95
1.60 1.52 1.54 1.70 1.76 1.69 1.63 1.65 1.77 1.92 1.95 1.93 2.02 2.13 2.14 2.06 1.82 1.51 1.09 0.94 0.91 0.85 0.92 0.94 0.96 1.01 1.09 1.39 1.64 1.39 1.26 1.01 1.00 1.21 1.32 1.36 1.44 1.40 1.25 1.29 1.61 1.75 1.51
1.36 1.29 1.38 1.51 1.55 1.55 1.55 1.52 1.57 1.67 1.75 1.79 1.86 1.97 1.99 1.88 1.79 1.77 1.40 1.13 0.99 0.75 0.76 0.83 0.89 0.92 0.98 1.16 1.20 1.16 1.02 0.89 0.90 0.95 0.88 0.91 1.03 1.16 1.21 1.30 1.54 1.77 1.86
1.25 1.22 1.25 1.27 1.30 1.35 1.40 1.44 1.46 1.52 1.66 1.71 1.74 1.84 1.91 1.86 1.85 1.81 1.65 1.36 1.19 0.85 0.81 0.84 0.85 0.96 0.90 1.06 1.20 1.05 0.86 0.77 0.69 0.64 0.62 0.67 0.73 0.82 0.91 1.06 1.30 1.56 1.76
1.18 1.13 1.07 1.06 1.11 1.15 1.18 1.31 1.40 1.49 1.61 1.67 1.69 1.90 1.86 1.81 1.87 1.87 1.84 1.79 1.56 1.24 1.11 0.99 0.89 0.88 0.92 1.00 1.05 0.92 0.77 0.69 0.59 0.51 0.46 0.49 0.53 0.58 0.66 0.79 0.97 1.13 1.25
1.06 1.04 1.05 1.07 1.05 1.06 1.12 1.21 1.30 1.34 1.47 1.56 1.66 1.81 1.86 1.84 1.81 1.89 1.98 2.01 1.98 1.75 1.56 1.41 1.18 0.90 0.90 0.91 0.94 0.78 0.73 0.65 0.55 0.47 0.40 0.38 0.40 0.43 0.48 0.58 0.69 0.81 0.91
0.85 0.86 0.87 0.90 0.92 0.93 0.95 1.05 1.14 1.23 1.33 1.39 1.47 1.58 1.67 1.72 1.74 1.79 1.90 1.93 1.95 1.92 1.71 1.57 1.41 1.09 1.01 0.85 0.86 0.76 0.70 0.70 0.56 0.48 0.42 0.35 0.35 0.35 0.37 0.44 0.56 0.62 0.68
0.69 0.70 0.73 0.76 0.81 0.85 0.90 0.95 0.99 1.08 1.13 1.17 1.23 1.34 1.44 1.58 1.57 1.48 1.52 1.62 1.75 1.84 1.65 1.63 1.60 1.41 1.29 1.14 1.00 0.90 0.75 0.67 0.54 0.44 0.43 0.40 0.36 0.35 0.37 0.40 0.45 0.52 0.59
0.60 0.61 0.63 0.66 0.71 0.77 0.86 0.95 1.01 1.07 1.09 1.09 1.13 1.23 1.28 1.36 1.45 1.42 1.36 1.37 1.54 1.69 1.69 1.70 1.82 1.75 1.51 1.33 1.19 1.04 0.82 0.69 0.64 0.49 0.40 0.39 0.39 0.36 0.36 0.40 0.45 0.47 0.51
0.51 0.50 0.50 0.53 0.59 0.69 0.80 0.87 0.91 0.96 1.04 1.11 1.09 1.09 1.09 1.16 1.34 1.47 1.47 1.44 1.48 1.60 1.70 1.71 1.84 1.88 1.67 1.45 1.40 1.23 1.03 0.99 0.73 0.60 0.46 0.37 0.38 0.37 0.36 0.37 0.41 0.48 0.52
0.43 0.46 0.48 0.53 0.57 0.63 0.69 0.74 0.74 0.74 0.77 0.85 0.90 0.89 0.87 0.89 1.05 1.32 1.41 1.52 1.57 1.56 1.67 1.72 1.83 1.93 1.95 1.72 1.60 1.46 1.33 1.20 0.99 0.72 0.63 0.44 0.40 0.42 0.41 0.38 0.38 0.45 0.56
0.31 0.36 0.41 0.48 0.53 0.55 0.53 0.55 0.59 0.55 0.55 0.54 0.57 0.61 0.63 0.66 0.68 0.81 1.01 1.28 1.46 1.54 1.59 1.70 1.78 1.87 1.90 1.89 1.60 1.47 1.42 1.41 1.32 1.08 0.98 0.72 0.59 0.54 0.48 0.42 0.38 0.42 0.54
0.30 0.34 0.37 0.38 0.40 0.40 0.42 0.44 0.44 0.43 0.41 0.40 0.39 0.40 0.40 0.41 0.43 0.50 0.59 0.79 1.04 1.28 1.52 1.68 1.75 1.79 1.83 1.85 1.78 1.65 1.55 1.43 1.44 1.31 1.19 1.15 1.01 0.98 0.76 0.48 0.39 0.38 0.48
0.30 0.33 0.36 0.37 0.38 0.40 0.35 0.34 0.38 0.36 0.35 0.35 0.36 0.37 0.30 0.26 0.31 0.38 0.42 0.47 0.61 0.75 0.92 1.29 1.57 1.61 1.66 1.73 1.85 1.82 1.72 1.67 1.62 1.51 1.45 1.53 1.41 1.33 1.01 0.79 0.65 0.45 0.42
0.34 0.37 0.39 0.39 0.40 0.38 0.32 0.29 0.28 0.27 0.34 0.38 0.36 0.37 0.35 0.31 0.31 0.36 0.43 0.45 0.41 0.45 0.54 0.67 0.85 1.03 1.23 1.51 1.73 1.86 1.95 2.00 2.04 1.88 1.74 1.84 1.71 1.60 1.39 1.09 0.81 0.59 0.46
0.42 0.38 0.41 0.44 0.45 0.44 0.35 0.29 0.28 0.28 0.34 0.40 0.38 0.38 0.39 0.35 0.30 0.26 0.34 0.43 0.42 0.42 0.43 0.49 0.57 0.74 0.91 1.11 1.37 1.57 1.69 1.85 2.12 2.17 1.95 1.94 1.93 1.84 1.90 1.76 1.28 0.91 0.65
0.54 0.48 0.46 0.50 0.51 0.52 0.42 0.29 0.28 0.33 0.40 0.44 0.45 0.43 0.40 0.35 0.30 0.25 0.30 0.39 0.42 0.41 0.44 0.48 0.49 0.52 0.59 0.70 0.89 1.09 1.21 1.39 1.65 1.90 1.75 1.67 1.84 1.96 2.22 2.20 1.83 1.40 1.00